Flag for Peru Weather past 2 weeks in Trujillo, La Libertad, Peru

Now
66 °F

Partly sunny.


Feels Like: 66 °F
Forecast: 62 / 74 °F
Wind: 12 mph from South

Location: Trujillo Airport

Current Time: Aug 28, 2014 at 10:34:04 AM

Latest Report: Aug 28, 2014 at 10:00 AM


Visibility: N/A

Pressure: 29.98 "Hg

Humidity: 78%

Dew point: 59 °F

Location of TrujilloLocation

Historic Weather in Trujillo — Graph

°F

Trujillo temperature yesterday

Maximum temperature yesterday: 68 °F (at 11:00 AM)
Minimum temperature yesterday: 61 °F (at 6:00 AM)
Average temperature yesterday: 65 °F

Past Weeks' High & Low Weather Summary

 TemperatureHumidityPressure
High70 °F (Aug 18, 2:00 PM)88% (Aug 13, 9:00 AM)30.04 "Hg (Aug 13, 9:00 AM)
Low61 °F (Aug 13, 9:00 AM)69% (Aug 16, 12:00 PM)29.83 "Hg (Aug 25, 4:00 PM)
Average64 °F82%29.94 "Hg
* Reported Aug 13 9:00 AM — Aug 28 9:00 AM, Trujillo, Weather by CustomWeather, © 2014

Note: Actual official high and low records may vary slightly from our data, if they occured in-between our weather recording intervals... More about our weather records

Advertising

Trujillo weather history for previous 24 hours

 ConditionsComfort  
Time TempWeatherWind HumidityBarometerVisibility
9:00 AM
Aug 28
64 °FPartly sunny.8 mph83%29.98 "Hg4 mi
8:00 AM64 °FBroken clouds.6 mph83%29.95 "Hg4 mi
7:00 AM63 °FOvercast.6 mph88%29.95 "HgN/A
6:00 AM63 °FOvercast.6 mph88%29.92 "Hg4 mi
5:00 AM63 °FOvercast.7 mph83%29.92 "HgN/A
4:00 AM61 °FPartly cloudy.6 mph88%29.92 "Hg4 mi
3:00 AM63 °FMild.6 mph88%29.92 "HgN/A
2:00 AM63 °FFog.7 mph83%29.92 "Hg3 mi
1:00 AM63 °FPassing clouds.6 mph83%29.92 "Hg6 mi
12:00 AM63 °FPassing clouds.7 mph83%29.95 "Hg5 mi
11:00 PM
Aug 27
63 °FOvercast.9 mph88%29.98 "Hg4 mi
10:00 PM63 °FOvercast.10 mph88%29.98 "Hg4 mi
9:00 PM64 °FOvercast.12 mph83%29.98 "Hg4 mi
8:00 PM64 °FOvercast.9 mph83%29.98 "Hg4 mi
7:00 PM64 °FPassing clouds.9 mph83%29.95 "Hg4 mi
6:00 PM64 °FClear.8 mph83%29.92 "Hg4 mi
5:00 PM66 °FClear.10 mph78%29.92 "Hg5 mi
4:00 PM68 °FClear.12 mph73%29.92 "Hg5 mi
3:00 PM68 °FClear.12 mph73%29.95 "Hg5 mi
2:00 PM68 °FPassing clouds.10 mph73%29.95 "HgN/A
1:00 PM66 °FOvercast.9 mph78%29.95 "Hg5 mi
12:00 PM68 °FPartly sunny.12 mph73%29.98 "Hg4 mi
11:00 AM68 °FScattered clouds.10 mph73%29.98 "Hg5 mi
10:00 AM66 °FScattered clouds.8 mph73%30.01 "Hg4 mi
Weather by CustomWeather, © 2014

See weather overviewHow to use our weather pages